Tracking 19286 objects as of 18-Nov-2018
HD Live streaming from Space Station
objects crossing your sky now

ATS 6

Track ATS 6 now!
ATS 6 is classified as:


NORAD ID: 7318
Int'l Code: 1974-039A
Perigee: 35,197.8 km
Apogee: 35,446.2 km
Inclination: 8.6 °
Period: 1,412.1 minutes
Semi major axis: 41693 km
RCS: 6.3095 m2 (large)
Launch date: May 30, 1974
Source: United States (US)
Launch site: AIR FORCE EASTERN TEST RANGE (AFETR)
aabbcc
Your satellite tracking list
Your tracking list is empty




NASA's NSSDC Master Catalog

Two Line Element Set (TLE):
1  7318U 74039A   18321.81003343 -.00000076 +00000-0 +00000-0 0  9993
2  7318 008.5962 301.3286 0029787 246.9683 115.7198 01.01978342093778
Source of the keplerian elements: AFSPC